Temp_Advection
nan nan nan nan nan nan nan nan nan nan nan nan nan nan nan nan nan nan nan nan nan nan nan nan nan nan nan nan nan nan nan nan nan nan nan nan nan nan nan nan nan nan nan
nan 1 0 0 0 0 0 0 0 0 0 0 0 0 0 0 0 -0 -0 -0 -0 -0 -0 -0 -0 -0 -0 -0 -0 -0 -0 -1 -1 -1 -1 -0 0 -0 -1 -0 -0 -0 nan
nan 0 -0 0 0 0 0 0 0 0 0 0 0 0 0 0 0 0 0 -0 -0 -0 -0 -0 -0 -0 -0 -0 -1 -1 -1 -1 -1 -1 -0 -0 -0 -1 -0 -0 -0 -0 nan
nan 0 0 0 0 1 0 0 0 0 0 0 0 0 0 0 0 0 0 0 0 -0 -0 -0 -0 -0 -0 -0 -0 -1 -1 -1 -0 -0 -0 0 0 -0 -0 -0 -1 -1 nan
nan 1 1 1 1 1 0 0 0 0 0 0 0 0 0 0 0 0 0 0 0 0 -0 -0 -0 -0 -0 -0 -0 -0 -1 -1 -1 -0 -0 0 0 0 0 -0 -0 -1 nan
nan 0 1 1 1 1 1 0 0 0 0 0 0 0 0 0 0 0 0 0 0 0 0 -0 -0 -0 -0 -0 -0 -0 -0 -0 -0 -0 -0 -0 0 0 0 0 -0 -0 nan
nan 0 1 1 1 0 1 1 0 0 0 0 0 0 0 0 0 0 0 0 0 0 0 0 -0 -0 -0 -0 -0 -0 -0 -0 0 -0 -0 -0 -0 -0 -0 0 0 -0 nan
nan 0 0 1 0 1 1 0 0 0 0 0 0 0 0 0 0 0 0 0 0 0 0 0 0 -0 -0 -0 -0 -0 -0 -0 -0 0 0 0 0 -0 -0 -0 0 -0 nan
nan 0 1 0 0 0 0 0 0 1 1 1 1 0 0 0 0 0 0 0 0 0 0 0 0 -0 -0 -0 -0 -0 -0 0 -0 -0 0 0 0 0 0 -0 0 0 nan
nan 0 1 1 1 0 0 0 0 0 0 0 0 0 0 0 0 0 0 0 0 0 0 0 -0 -0 -0 -0 0 0 -0 0 0 -0 -0 0 0 0 -0 0 0 0 nan
nan 0 0 0 0 0 0 0 0 0 0 0 0 0 0 0 0 0 0 -0 -0 -0 0 0 -0 -0 -0 -0 -0 0 0 0 0 0 -0 -0 0 0 0 -0 -0 0 nan
nan 0 0 -0 -0 -0 0 0 0 0 0 0 0 0 0 0 0 1 0 -0 -0 0 0 -0 -0 -0 -0 -0 0 0 1 0 0 -0 -0 -0 -0 0 0 -0 -0 0 nan
nan -0 -0 -1 -1 -0 -0 0 0 0 0 0 1 0 -0 1 1 0 -0 -0 -0 -0 -0 -0 -0 -0 -0 -0 0 0 0 0 0 0 -0 -0 -0 0 0 0 0 0 nan
nan -1 -1 -1 -1 -1 -0 -0 -0 0 0 0 0 1 0 0 -0 -0 0 0 -0 -0 -0 -0 -0 -0 0 0 0 0 0 0 0 0 -0 -0 -0 -0 0 0 0 0 nan
nan -1 -1 -0 -0 -1 -1 -1 -0 -0 -0 -0 0 0 0 0 0 0 0 -0 -0 -0 -0 -0 0 0 -0 -0 0 0 0 0 -0 0 0 -0 -0 0 0 0 0 -0 nan
nan -0 -0 -1 -1 -1 -0 -1 -0 -0 -0 -0 -0 0 0 0 0 -0 -0 -0 0 0 -0 -0 -0 0 0 0 0 0 0 -0 -0 -0 0 0 0 0 0 -0 -0 -0 nan
nan -0 -0 -0 -0 -0 -0 -0 -0 -0 -0 -0 -0 -0 -0 -0 0 0 -0 -0 -0 -0 0 0 -0 -0 -0 0 0 -0 0 0 -0 -0 -0 0 0 0 -0 0 -0 -0 nan
nan -0 -0 -0 -0 -0 -0 -0 -0 -0 -0 -0 -0 -0 -0 -0 -0 -0 -0 0 0 -0 -0 -0 0 -0 -0 0 0 -0 0 0 -0 0 0 0 0 -0 0 -0 -0 -0 nan
nan -0 -0 -1 -1 -0 -0 -0 -0 -0 -0 -0 -0 -0 -0 -0 -0 -0 -0 -0 -0 -0 -0 -0 -0 -0 -0 0 0 0 0 -0 -0 -0 0 0 -0 -0 0 -0 -0 -0 nan
nan -0 -0 -0 -0 -0 -1 -1 -1 -0 -0 -0 -0 -0 -0 -0 -0 -0 -0 -0 -0 -0 -0 -0 -0 -0 -0 0 0 -0 0 -0 -0 -0 0 0 -0 0 -0 -0 -0 -0 nan
nan -0 -0 -0 -1 -1 -0 -1 -1 -1 -0 -1 -0 -0 -0 -0 -0 -0 -0 -0 -0 -0 -0 -0 -0 -0 -0 -0 0 0 -0 0 -0 -1 -0 -0 -0 -0 -0 -0 0 0 nan
nan -0 -0 -0 -0 -0 -0 -0 -0 -0 -0 -1 -1 -0 -0 -0 -0 -0 -0 -0 -0 -0 -1 -0 -0 -0 0 0 0 -0 -0 -0 -0 -0 -0 -0 -0 -0 -0 0 0 -0 nan
nan -0 -0 -1 -0 -0 -0 -0 -0 -0 -0 -0 -1 -0 -0 -0 -0 -0 -0 -0 -0 -0 -0 -0 -1 -1 -0 -0 0 -0 -1 -0 -0 -0 -0 -0 -0 -0 -0 0 0 -0 nan
nan -0 -0 -0 -0 -0 -0 -0 -0 -0 -0 -1 -1 -1 -0 -0 -0 -0 -0 -0 -0 -0 -0 -0 -0 -1 -0 -0 -0 -0 -0 -0 -1 -0 0 0 -0 -0 0 0 0 0 nan
nan -0 -0 -0 -0 -0 -0 -0 -0 -0 -0 -0 -1 -1 -1 -1 -1 -0 0 -0 -1 -0 -0 -0 -0 -0 -0 0 0 0 -0 -0 -0 -0 -0 -0 -0 0 1 0 0 0 nan
nan nan nan nan nan nan nan nan nan nan nan nan nan nan nan nan nan nan nan nan nan nan nan nan nan nan nan nan nan nan nan nan nan nan nan nan nan nan nan nan nan nan nan
Wind_Speed
21 20 20 20 18 17 14 13 9 6 5 5 5 4 2 1 1 2 4 5 5 6 6 6 7 8 9 10 11 12 12 13 14 11 8 9 6 4 4 8 9 10 11
26 25 23 21 20 18 17 14 10 9 8 6 6 5 4 4 3 3 3 3 4 5 6 7 7 9 10 12 13 13 14 14 15 14 9 5 1 9 9 6 5 3 5
26 28 27 23 20 21 19 15 12 10 9 8 8 7 7 6 5 4 4 4 4 5 6 6 6 7 9 10 12 14 15 15 14 12 7 3 3 11 5 6 6 7 6
22 26 27 24 21 20 19 16 14 12 11 10 9 9 9 7 6 6 6 6 5 5 5 5 6 6 7 8 10 12 13 13 11 7 5 2 5 3 7 8 13 13 12
21 25 26 23 18 19 19 17 15 15 13 12 11 10 9 8 8 8 8 7 7 7 6 6 6 7 9 11 12 12 12 11 10 9 5 2 6 8 8 13 12 18 14
16 17 19 19 18 19 19 17 17 17 15 13 12 11 10 10 10 10 10 9 8 7 7 7 7 8 10 11 13 14 13 10 8 8 8 6 4 6 7 10 13 11 9
13 12 17 18 17 18 18 18 19 18 16 14 13 13 13 13 13 12 11 11 10 9 9 9 10 10 10 11 11 11 12 13 11 9 8 9 9 9 10 9 11 9 10
9 10 10 12 14 15 17 18 18 18 16 15 14 14 14 14 13 13 12 12 11 11 11 11 12 12 13 13 12 11 10 10 11 11 9 8 10 11 12 11 10 9 10
7 8 9 9 9 11 13 14 16 17 16 15 15 14 14 14 13 12 12 12 12 12 12 13 12 12 13 14 14 13 12 11 11 10 10 10 10 10 10 11 10 7 4
8 11 11 10 9 8 7 9 11 12 13 14 14 14 13 12 12 12 12 12 12 13 13 13 13 13 14 14 15 14 14 14 12 12 11 10 10 10 11 11 10 10 10
15 14 12 8 5 5 5 4 7 10 11 12 13 14 13 12 14 15 16 13 14 15 15 14 15 15 16 16 16 15 15 17 15 14 13 12 12 11 12 12 11 12 13
16 12 9 6 4 2 3 6 9 10 9 12 13 16 17 19 16 13 14 15 15 14 15 16 16 18 18 18 17 15 15 16 17 17 16 15 14 13 12 13 13 13 12
14 12 10 10 8 6 5 5 7 9 13 15 18 20 19 13 11 13 17 16 15 15 16 17 18 19 19 19 17 15 16 16 14 14 15 14 13 14 14 15 14 13 11
11 11 13 12 11 10 8 8 9 10 14 15 13 11 9 12 15 15 14 15 17 18 18 18 19 20 19 17 16 15 16 16 14 14 13 14 14 13 14 15 17 17 17
12 12 12 12 11 11 11 10 9 10 10 11 12 12 14 16 14 15 17 20 20 20 20 21 20 19 18 17 15 15 16 17 16 15 16 15 14 13 13 13 16 14 15
10 10 11 11 11 11 11 11 11 12 12 12 12 12 13 14 17 17 18 20 20 21 22 21 20 18 18 17 15 14 21 17 19 18 17 16 16 14 13 13 14 15 17
11 11 11 12 12 13 14 14 14 14 13 13 13 12 13 16 18 21 22 22 22 22 21 20 19 20 19 17 16 15 20 22 18 17 18 17 18 15 15 14 15 14 16
11 12 12 12 13 13 14 15 15 15 14 14 15 16 17 19 22 22 22 23 22 21 21 21 20 21 20 19 17 17 20 24 22 19 19 20 20 20 19 18 16 18 18
12 14 15 16 15 15 16 16 16 16 16 16 17 17 18 20 22 23 23 22 22 23 23 22 22 23 23 21 19 18 21 25 24 21 21 21 20 20 18 17 18 16 17
12 14 17 17 15 17 18 18 18 18 18 18 19 19 21 23 23 23 23 24 23 24 24 24 24 24 25 23 21 19 21 26 26 22 21 22 19 17 15 18 20 18 18
16 16 18 18 19 19 18 18 19 20 20 21 22 23 23 24 24 25 24 24 25 26 26 26 26 26 25 26 25 22 22 25 26 24 20 21 18 18 19 17 19 17 18
18 18 18 17 19 19 17 18 20 22 23 25 26 25 25 25 25 25 26 26 26 27 28 28 28 28 27 25 24 22 22 22 24 23 19 20 17 16 17 17 18 16 16
18 18 17 21 21 19 18 22 24 25 26 26 27 27 27 27 26 27 27 28 28 27 28 27 28 28 26 24 21 19 19 21 22 26 22 19 18 16 18 17 18 19 20
20 19 23 25 25 23 25 26 26 25 25 27 27 27 27 26 25 25 26 26 27 27 28 29 29 29 28 26 25 22 21 22 22 22 20 22 21 22 24 19 17 17 15
20 23 27 26 28 29 28 27 27 26 26 27 27 28 29 29 28 26 26 27 27 25 26 27 27 27 27 23 20 20 19 16 16 22 26 25 25 19 23 22 17 18 17
25 28 27 29 30 29 29 28 26 25 26 30 32 31 28 29 29 29 31 27 24 24 25 26 27 30 31 28 25 21 19 21 24 19 19 23 28 27 22 20 19 20 19
Wind_Direction
234 233 238 237 234 230 229 232 231 237 242 228 229 227 220 228 348 6 12 15 15 13 13 9 12 12 10 16 9 3 357 352 352 354 49 72 72 70 276 275 279 274 269
220 219 229 235 237 232 230 228 227 230 236 234 237 233 233 246 268 297 320 331 340 346 347 351 357 3 3 2 2 7 11 7 3 12 9 26 192 38 24 46 57 75 266
218 215 223 234 236 231 230 227 228 230 233 232 233 234 237 243 247 269 283 296 312 325 335 342 351 355 359 359 360 357 357 5 4 7 22 15 328 345 291 324 352 355 341
220 222 225 230 237 234 229 226 228 231 231 232 234 237 243 247 247 262 273 281 290 301 314 324 335 342 351 351 352 353 349 346 348 5 346 315 285 318 313 302 314 318 325
220 224 230 237 244 233 231 229 229 232 231 233 234 243 246 250 257 263 266 271 284 295 302 307 318 327 335 340 341 339 338 337 334 332 337 241 226 241 268 291 296 308 320
215 230 235 235 243 232 230 230 232 235 234 237 241 244 247 256 259 262 268 274 281 283 289 296 303 312 319 323 328 329 328 326 318 311 309 303 276 258 259 272 290 301 310
203 218 226 231 235 234 233 234 237 240 241 243 244 247 250 252 256 260 268 273 276 278 281 286 292 299 306 313 315 314 312 310 307 298 288 284 280 280 284 282 280 297 297
212 228 241 241 245 245 244 244 247 248 249 251 250 249 250 255 258 260 260 260 265 270 273 279 288 296 302 308 313 314 307 296 290 291 288 271 266 270 271 275 268 284 279
196 210 217 234 257 259 260 261 259 255 255 254 252 252 254 256 259 260 259 258 262 268 272 277 284 295 304 311 314 312 306 303 291 277 274 273 266 269 274 276 275 253 266
137 144 160 184 208 225 251 265 272 273 269 261 258 256 256 260 262 265 264 267 271 271 273 278 284 291 299 303 304 301 296 294 288 279 275 268 265 268 265 262 261 254 247
117 120 128 137 145 176 186 223 268 277 273 273 272 268 262 256 257 255 266 273 278 278 277 282 291 298 301 301 297 288 278 279 279 269 267 266 262 257 254 263 261 249 252
100 93 88 72 49 21 269 257 258 265 264 266 267 265 265 272 264 263 261 258 258 267 279 285 290 295 297 296 293 284 266 260 265 267 264 259 256 259 259 256 260 253 251
70 48 39 29 17 359 332 288 261 257 254 253 262 265 270 255 256 257 262 265 266 270 275 282 290 294 295 292 287 278 267 269 275 270 269 266 261 256 249 245 249 249 248
53 31 25 26 17 359 336 317 295 277 265 264 263 265 277 262 257 269 274 281 277 275 281 286 290 290 289 288 286 275 262 263 265 268 272 280 276 262 252 250 252 251 253
45 36 30 21 20 7 350 346 332 317 304 295 287 277 263 265 270 268 270 277 280 283 286 288 289 288 284 282 281 274 270 265 265 258 260 272 280 270 257 253 251 252 250
44 30 17 10 4 358 348 341 335 324 317 306 295 286 275 270 281 282 275 276 279 282 286 286 286 284 280 280 275 267 277 269 261 260 256 256 268 259 258 253 255 258 250
23 15 5 357 352 347 340 334 327 319 317 310 305 298 290 284 278 278 281 283 285 287 288 286 285 285 281 278 273 266 268 274 271 261 257 257 255 263 260 253 244 246 243
5 357 345 339 336 334 329 326 323 320 315 307 301 293 286 285 285 286 285 287 286 286 285 284 284 283 281 278 273 269 266 270 272 265 255 252 256 262 264 261 260 239 233
350 343 336 335 330 327 324 323 323 320 312 305 303 300 295 291 290 289 290 288 287 285 284 284 283 281 279 276 273 270 263 269 274 269 251 247 256 263 262 248 252 249 233
344 339 333 332 331 331 326 325 326 323 316 308 307 304 302 301 296 292 290 289 287 286 286 284 282 281 279 277 273 267 263 267 273 273 255 241 254 266 257 236 245 255 231
330 328 326 327 330 327 324 321 321 320 317 313 309 303 301 300 297 296 294 292 290 288 287 285 283 282 280 279 276 270 266 265 270 273 258 242 240 248 245 238 244 253 230
332 332 330 327 325 327 322 315 312 313 309 307 306 304 303 299 296 295 294 292 290 291 291 290 286 282 281 279 277 271 264 264 265 269 265 243 239 244 237 234 241 242 235
325 326 321 321 323 322 316 311 311 308 305 301 298 298 299 298 296 294 294 293 292 291 292 292 291 291 290 287 283 272 265 260 256 262 258 246 244 238 238 229 241 236 231
327 325 321 322 320 319 315 311 312 310 305 303 301 301 301 303 299 293 291 291 290 290 288 288 288 289 289 286 284 280 269 250 250 242 241 238 240 247 235 230 239 224 232
323 318 319 318 315 316 316 316 314 311 306 304 304 304 303 302 300 296 293 292 290 290 290 290 291 290 289 293 291 280 279 272 255 250 246 242 238 228 226 229 233 234 238
313 315 316 315 316 316 315 314 313 309 305 302 303 303 301 299 299 299 298 293 286 283 279 278 277 281 286 287 270 267 265 257 252 246 248 241 236 242 235 230 241 246 246
Height
1490 1493 1495 1498 1500 1502 1503 1504 1505 1506 1507 1507 1507 1506 1506 1507 1507 1506 1506 1505 1505 1505 1504 1503 1501 1499 1498 1497 1496 1496 1494 1492 1491 1490 1491 1489 1489 1488 1487 1487 1488 1487 1488
1486 1489 1491 1494 1496 1498 1500 1501 1503 1504 1505 1505 1506 1505 1505 1505 1505 1505 1504 1504 1504 1503 1503 1502 1500 1498 1497 1496 1495 1494 1493 1491 1490 1489 1488 1489 1490 1488 1487 1487 1485 1485 1487
1481 1485 1487 1490 1493 1495 1497 1499 1501 1502 1503 1503 1503 1504 1503 1504 1504 1504 1503 1504 1503 1502 1502 1501 1499 1498 1496 1495 1494 1493 1492 1490 1490 1488 1490 1489 1490 1488 1487 1485 1485 1485 1484
1479 1481 1483 1486 1489 1493 1495 1497 1499 1500 1501 1501 1502 1502 1503 1502 1502 1502 1503 1503 1502 1501 1500 1500 1499 1497 1496 1495 1494 1492 1492 1491 1490 1489 1488 1488 1489 1489 1487 1485 1484 1483 1483
1475 1477 1480 1484 1488 1490 1492 1495 1496 1497 1498 1499 1499 1500 1501 1501 1500 1500 1501 1501 1501 1501 1500 1498 1497 1496 1494 1493 1492 1491 1490 1489 1489 1487 1487 1487 1487 1487 1487 1484 1483 1481 1480
1474 1476 1479 1483 1484 1486 1489 1492 1494 1495 1496 1497 1497 1498 1498 1499 1498 1497 1498 1498 1498 1497 1497 1497 1496 1494 1493 1491 1490 1489 1488 1487 1487 1486 1485 1485 1485 1484 1484 1483 1481 1480 1480
1473 1474 1477 1479 1482 1484 1487 1489 1491 1492 1494 1494 1495 1495 1495 1494 1494 1494 1494 1495 1494 1493 1493 1493 1493 1492 1490 1489 1488 1487 1486 1485 1484 1484 1484 1483 1482 1482 1481 1481 1481 1480 1478
1472 1474 1475 1478 1481 1483 1485 1487 1489 1490 1491 1492 1493 1493 1493 1493 1493 1492 1490 1490 1491 1491 1490 1489 1489 1489 1488 1486 1484 1483 1482 1482 1481 1480 1480 1481 1481 1480 1478 1478 1479 1479 1478
1472 1474 1476 1478 1480 1482 1484 1485 1486 1487 1488 1488 1490 1490 1490 1490 1490 1489 1489 1488 1487 1487 1487 1486 1485 1485 1484 1482 1480 1479 1478 1478 1477 1476 1476 1476 1476 1476 1476 1475 1474 1474 1475
1473 1474 1476 1477 1479 1481 1482 1483 1483 1484 1485 1485 1486 1487 1486 1486 1487 1486 1486 1485 1485 1484 1484 1483 1483 1481 1480 1479 1477 1476 1475 1474 1474 1473 1472 1471 1472 1472 1472 1472 1473 1473 1471
1475 1476 1477 1478 1479 1480 1481 1482 1483 1482 1482 1482 1483 1484 1484 1483 1483 1483 1482 1482 1482 1481 1480 1479 1478 1477 1476 1474 1474 1473 1471 1471 1470 1470 1469 1468 1468 1468 1468 1470 1470 1469 1469
1478 1478 1478 1480 1480 1481 1481 1481 1479 1479 1480 1480 1479 1479 1479 1479 1479 1478 1478 1477 1476 1476 1475 1475 1474 1473 1472 1470 1469 1468 1467 1467 1466 1465 1465 1464 1464 1465 1465 1464 1466 1465 1465
1481 1483 1481 1480 1481 1481 1480 1481 1480 1478 1476 1475 1475 1475 1475 1473 1473 1474 1474 1474 1473 1472 1471 1470 1469 1468 1467 1466 1464 1464 1463 1462 1461 1460 1460 1460 1459 1459 1460 1461 1463 1463 1462
1481 1483 1482 1480 1479 1481 1479 1478 1477 1476 1475 1473 1472 1471 1471 1471 1470 1470 1469 1470 1470 1469 1468 1466 1463 1461 1461 1461 1460 1460 1458 1457 1457 1456 1456 1456 1457 1455 1454 1456 1458 1459 1459
1479 1480 1480 1479 1477 1477 1480 1476 1475 1474 1471 1469 1468 1468 1468 1468 1467 1467 1466 1466 1465 1464 1463 1461 1459 1457 1455 1454 1455 1456 1455 1454 1453 1452 1452 1453 1451 1452 1450 1450 1453 1454 1454
1481 1480 1480 1478 1476 1475 1475 1475 1473 1473 1470 1468 1466 1465 1465 1463 1464 1463 1462 1461 1459 1458 1458 1455 1453 1451 1450 1450 1450 1451 1451 1449 1449 1447 1447 1447 1450 1448 1446 1447 1448 1449 1449
1482 1480 1479 1478 1476 1474 1473 1472 1471 1470 1467 1466 1464 1463 1462 1461 1461 1460 1458 1456 1454 1453 1451 1450 1447 1446 1445 1444 1445 1447 1445 1443 1442 1442 1441 1442 1444 1443 1442 1442 1443 1444 1445
1483 1481 1480 1477 1474 1472 1471 1470 1468 1466 1464 1463 1461 1460 1459 1457 1456 1454 1452 1450 1449 1446 1445 1443 1441 1440 1440 1440 1441 1441 1440 1438 1437 1436 1436 1437 1438 1438 1438 1437 1438 1438 1440
1483 1480 1479 1476 1472 1470 1469 1466 1464 1461 1461 1459 1457 1455 1454 1452 1450 1449 1447 1445 1442 1441 1439 1437 1436 1435 1434 1434 1434 1434 1433 1431 1430 1429 1430 1431 1431 1432 1433 1433 1434 1434 1435
1479 1477 1476 1474 1470 1468 1465 1461 1459 1458 1457 1454 1452 1451 1449 1447 1444 1442 1440 1438 1436 1434 1433 1431 1430 1429 1428 1428 1427 1428 1426 1424 1423 1423 1423 1424 1425 1426 1427 1428 1428 1429 1430
1477 1475 1472 1470 1466 1465 1460 1458 1456 1454 1452 1450 1447 1445 1443 1440 1438 1436 1434 1431 1430 1427 1426 1424 1423 1422 1421 1420 1419 1420 1419 1418 1417 1416 1416 1417 1419 1421 1422 1423 1423 1424 1425
1472 1470 1467 1466 1464 1460 1457 1454 1452 1450 1447 1444 1441 1438 1436 1434 1431 1429 1426 1424 1422 1420 1418 1416 1414 1413 1412 1412 1411 1411 1411 1412 1411 1410 1410 1412 1414 1415 1416 1417 1418 1420 1421
1469 1467 1464 1461 1459 1456 1453 1449 1446 1443 1440 1437 1435 1432 1429 1427 1424 1422 1419 1416 1414 1412 1410 1408 1406 1405 1404 1403 1403 1403 1404 1405 1405 1403 1405 1406 1408 1409 1410 1411 1413 1414 1414
1464 1462 1459 1455 1452 1450 1447 1444 1439 1436 1433 1429 1427 1424 1421 1419 1417 1414 1412 1409 1407 1405 1403 1401 1399 1397 1396 1396 1395 1395 1395 1395 1395 1396 1398 1399 1402 1402 1403 1406 1408 1409 1410
1459 1456 1452 1449 1445 1442 1439 1436 1433 1429 1426 1422 1419 1416 1413 1411 1407 1405 1403 1401 1399 1398 1396 1393 1392 1391 1389 1389 1389 1389 1388 1388 1389 1391 1391 1393 1394 1394 1397 1400 1403 1405 1406
1454 1450 1446 1442 1438 1435 1432 1429 1426 1422 1419 1415 1411 1409 1405 1402 1399 1396 1393 1393 1391 1391 1389 1388 1386 1384 1382 1381 1382 1382 1383 1383 1384 1385 1384 1385 1388 1390 1393 1394 1397 1399 1401